Weather History for Los Alamos, NM

Change the Weather History Date:

Sunday, November 11, 2012

  Actual Average Record
Temperature  
Mean Temperature 28 °F -  
Max Temperature 32 °F 50 °F 67 °F (1980)
Min Temperature 22 °F 28 °F 16 °F (1950)
Degree Days  
Heating Degree Days 37    
Moisture  
Dew Point 6 °F    
Average Humidity 42    
Maximum Humidity 75    
Minimum Humidity 23    
Precipitation  
Precipitation 0.00 in - - ()
Sea Level Pressure  
Sea Level Pressure 30.07 in    
Wind  
Wind Speed 11 mph (West)    
Max Wind Speed 31 mph    
Max Gust Speed 37 mph    
Averages and records for this station are not official NWS values.
T = Trace of Precipitation, MM = Missing Value Source: NWS Daily Summary

Daily Weather History Graph

Daily Weather History Graph

Search for Another Location

Airport:

Trip Planner

Search our weather history database for the weather conditions in past years. The results will help you decide how hot, cold, wet, or windy it might be!

Date:

Astronomy

Nov. 11, 2012 Rise Set
Actual Time 6:37 AM MST 5:00 PM MST
Civil Twilight 6:10 AM MST 5:27 PM MST
Nautical Twilight 5:40 AM MST 5:57 PM MST
Astronomical Twilight 5:09 AM MST 6:28 PM MST
Moon 3:58 AM MST (11/11) 3:22 PM MST (11/11)
Length of Visible Light 11h 16m
Length of Day
10h 22m
Waning Crescent, 7% of the Moon is Illuminated
Nov 11
Waning Crescent
Nov 13
New
Nov 20
First Quarter
Nov 28
Full
Dec 6
Last Quarter

Hourly Weather History & Observations

Time (MST) Temp. Windchill Dew Point Humidity Pressure Visibility Wind Dir Wind Speed Gust Speed Precip Events Conditions
12:15 AM 28.0 °F 21.7 °F 17.1 °F 63% 29.86 in - SW 5.8 mph - N/A   Overcast
12:35 AM 28.0 °F 22.8 °F 16.3 °F 62% 29.86 in - WSW 4.6 mph - N/A   Overcast
12:55 AM 27.3 °F 19.9 °F 17.6 °F 67% 29.86 in - NW 6.9 mph - N/A   Overcast
1:15 AM 27.5 °F 20.2 °F 17.8 °F 67% 29.86 in - WSW 6.9 mph - N/A   Overcast
1:35 AM 27.5 °F 19.3 °F 16.9 °F 64% 29.87 in - West 8.1 mph - N/A   Overcast
1:55 AM 28.2 °F 22.0 °F 15.6 °F 59% 29.87 in - West 5.8 mph - N/A   Scattered Clouds
2:15 AM 27.7 °F 18.2 °F 15.4 °F 60% 29.87 in - NW 10.4 mph - N/A   Mostly Cloudy
2:35 AM 25.7 °F 18.0 °F 18.0 °F 73% 29.88 in - WNW 6.9 mph - N/A   Overcast
2:55 AM 25.5 °F 14.3 °F 17.6 °F 72% 29.88 in - WNW 12.7 mph 17.3 mph N/A   Overcast
3:15 AM 25.7 °F 14.6 °F 17.1 °F 70% 29.88 in - West 12.7 mph 16.1 mph N/A   Overcast
3:35 AM 26.6 °F 15.2 °F 14.5 °F 60% 29.89 in - West 13.8 mph 20.7 mph N/A   Overcast
3:55 AM 26.1 °F 16.8 °F 17.6 °F 70% 29.90 in - WSW 9.2 mph - N/A   Overcast
4:35 AM 24.8 °F 10.3 °F 17.8 °F 75% 29.90 in - West 20.7 mph 27.6 mph N/A   Scattered Clouds
5:15 AM 25.0 °F 12.2 °F 14.5 °F 65% 29.90 in - West 16.1 mph 23.0 mph N/A   Clear
5:35 AM 25.2 °F 11.6 °F 12.7 °F 59% 29.91 in - West 18.4 mph 24.2 mph N/A   Clear
5:55 AM 25.3 °F 13.1 °F 11.8 °F 57% 29.92 in - West 15.0 mph - N/A   Clear
6:35 AM 24.8 °F 11.9 °F 10.4 °F 54% 29.95 in - West 16.1 mph 20.7 mph N/A   Clear
7:15 AM 24.8 °F 11.9 °F 9.3 °F 52% 29.96 in - WSW 16.1 mph 21.9 mph N/A   Clear
7:35 AM 25.5 °F 10.6 °F 8.2 °F 48% 29.96 in - West 23.0 mph 28.8 mph N/A   Clear
7:55 AM 25.5 °F 12.0 °F 9.1 °F 50% 29.97 in - West 18.4 mph 26.5 mph N/A   Clear
8:15 AM 26.1 °F 11.6 °F 7.7 °F 46% 29.98 in - West 21.9 mph 34.5 mph N/A   Clear
8:35 AM 26.4 °F 11.2 °F 7.7 °F 45% 29.99 in - West 25.3 mph 34.5 mph N/A   Clear
8:55 AM 27.1 °F 14.5 °F 8.6 °F 46% 30.00 in - West 17.3 mph 25.3 mph N/A   Clear
9:15 AM 27.5 °F 15.9 °F 8.1 °F 44% 30.00 in - West 15.0 mph 26.5 mph N/A   Clear
9:35 AM 28.6 °F 16.0 °F 7.3 °F 41% 30.01 in - West 18.4 mph 31.1 mph N/A   Clear
10:15 AM 29.1 °F 15.4 °F 7.7 °F 41% 30.03 in - West 23.0 mph 31.1 mph N/A   Clear
10:35 AM 29.1 °F 16.0 °F 8.4 °F 42% 30.04 in - West 20.7 mph 32.2 mph N/A   Clear
10:55 AM 30.0 °F 18.7 °F 7.9 °F 39% 30.03 in - WNW 16.1 mph 25.3 mph N/A   Clear
11:15 AM 30.7 °F 17.5 °F 3.2 °F 31% 30.04 in - West 23.0 mph 33.4 mph N/A   Clear
11:35 AM 32.0 °F 20.1 °F 1.8 °F 28% 30.04 in - West 19.6 mph 32.2 mph N/A   Clear
11:55 AM 32.2 °F 20.7 °F 1.8 °F 28% 30.04 in - West 18.4 mph 32.2 mph N/A   Clear
12:15 PM 31.6 °F 21.6 °F 0.3 °F 26% 30.05 in - WNW 13.8 mph 24.2 mph N/A   Clear
12:35 PM 31.6 °F 21.2 °F -2.9 °F 23% 30.05 in - West 15.0 mph 20.7 mph N/A   Scattered Clouds
12:55 PM 32.5 °F 18.1 °F -1.7 °F 23% 30.06 in - West 31.1 mph 36.8 mph N/A   Mostly Cloudy
1:15 PM 30.7 °F 16.7 °F -1.3 °F 25% 30.06 in - West 26.5 mph 29.9 mph N/A   Mostly Cloudy
1:35 PM 30.7 °F 18.8 °F 1.4 °F 29% 30.07 in - West 18.4 mph 32.2 mph N/A   Mostly Cloudy
1:55 PM 31.8 °F 19.9 °F -2.7 °F 23% 30.08 in - West 19.6 mph 27.6 mph N/A   Mostly Cloudy
2:15 PM 32.0 °F 21.6 °F -0.4 °F 25% 30.08 in - WSW 15.0 mph 29.9 mph N/A   Scattered Clouds
2:35 PM 31.5 °F 18.8 °F 1.8 °F 28% 30.09 in - West 21.9 mph 29.9 mph N/A   Scattered Clouds
2:55 PM 30.7 °F 19.6 °F 0.3 °F 27% 30.11 in - WNW 16.1 mph 27.6 mph N/A   Scattered Clouds
3:15 PM 30.2 °F 18.5 °F -2.9 °F 24% 30.12 in - West 17.3 mph 25.3 mph N/A   Scattered Clouds
3:35 PM 30.4 °F 16.5 °F -1.7 °F 25% 30.14 in - West 25.3 mph 32.2 mph N/A   Scattered Clouds
3:55 PM 30.4 °F 19.5 °F -2.0 °F 25% 30.14 in - West 15.0 mph 21.9 mph N/A   Scattered Clouds
4:15 PM 28.9 °F 15.8 °F 2.7 °F 33% 30.15 in - West 20.7 mph 31.1 mph N/A   Mostly Cloudy
4:35 PM 28.4 °F 20.4 °F 0.9 °F 31% 30.16 in - WNW 8.1 mph 20.7 mph N/A   Scattered Clouds
4:55 PM 28.0 °F 16.5 °F 3.0 °F 34% 30.17 in - WNW 15.0 mph 20.7 mph N/A   Scattered Clouds
5:15 PM 28.2 °F 21.0 °F 2.3 °F 33% 30.18 in - WNW 6.9 mph - N/A   Clear
5:35 PM 28.2 °F 20.2 °F 0.7 °F 31% 30.19 in - WNW 8.1 mph - N/A   Clear
5:55 PM 27.3 °F 23.4 °F -0.2 °F 31% 30.20 in - WNW 3.5 mph - N/A   Clear
6:15 PM 27.5 °F 19.3 °F 0.1 °F 31% 30.22 in - WSW 8.1 mph - N/A   Clear
6:35 PM 26.8 °F 21.4 °F 1.4 °F 34% 30.22 in - NW 4.6 mph - N/A   Clear
6:55 PM 27.0 °F 23.0 °F 1.2 °F 33% 30.23 in - WNW 3.5 mph 17.3 mph N/A   Clear
7:15 PM 26.6 °F 22.6 °F 1.0 °F 33% 30.23 in - WNW 3.5 mph - N/A   Clear
7:35 PM 27.3 °F - -0.8 °F 30% 30.24 in - Calm Calm - N/A   Clear
7:55 PM 26.1 °F - -0.2 °F 32% 30.24 in - Calm Calm - N/A   Clear
8:15 PM 26.6 °F - -0.2 °F 31% 30.25 in - Calm Calm - N/A   Clear
8:35 PM 25.7 °F - -0.0 °F 33% 30.26 in - Calm Calm - N/A   Clear
8:55 PM 25.9 °F - 0.5 °F 33% 30.27 in - Calm Calm - N/A   Clear
9:15 PM 24.6 °F 18.8 °F 0.9 °F 36% 30.28 in - ESE 4.6 mph - N/A   Clear
9:35 PM 25.3 °F 18.5 °F 0.9 °F 35% 30.28 in - ESE 5.8 mph - N/A   Clear
9:55 PM 25.0 °F - 1.0 °F 36% 30.29 in - Calm Calm - N/A   Clear
10:15 PM 24.8 °F 20.5 °F 3.0 °F 39% 30.29 in - East 3.5 mph - N/A   Clear
10:35 PM 24.4 °F - 1.4 °F 37% 30.30 in - Calm Calm - N/A   Clear
10:55 PM 24.6 °F - 1.8 °F 37% 30.30 in - Calm Calm - N/A   Clear
11:15 PM 24.1 °F - 2.5 °F 39% 30.31 in - Calm Calm - N/A   Clear
11:55 PM 22.8 °F 18.2 °F 2.8 °F 42% 30.32 in - NW 3.5 mph - N/A   Clear